Location: Biltmore Gardens
(41.6070°N, 83.4666°W)
Time: 14:26:16
(UTC+00:00)

Cosmos 2278 - Pass Details

Date: 14 July 2020
Orbit: 838 x 854 km, 71.1° (Epoch: 04 August)

Event Time Altitude Azimuth Distance (km) Brightness Sun altitude
Rises 08:49:49 0° 329° (NNW) 3,431 7.1 -13.0°
Reaches altitude 10° 08:52:22 10° 323° (NW) 2,491 6.2 -12.7°
Maximum altitude 08:57:44 43° 254° (WSW) 1,185 4.1 -12.0°
Drops below altitude 10° 09:03:04 10° 184° (S) 2,472 5.7 -11.3°
Sets 09:05:36 0° 178° (S) 3,402 6.5 -10.9°
